Weather observations for the past three days for
Fletcher Field, Clarksdale
Metric (Imperial)
Date Time (cdt) Wind (kph) Vis. (km) Weather Sky Cond. Temperature (ºC) Relative Humidity Wind Chill (°C) Heat Index (°C) Pressure Precipitation (cm)
Air Dwpt 6 hour altimeter (cm) sea level (mb) 1 hr 3 hr 6 hr
Max. Min.
08 00:15 Calm 16.09 NULL NULL 0 0 0% 76.28 0.0
07 23:55 Calm 16.09 NULL NULL 0 0 0% 76.25 0.0
07 23:35 Calm 16.09 NULL NULL 0 0 0% 76.25 0.0
07 23:15 Calm 14.48 NULL NULL 0 0 0% 76.25 0.0
07 22:55 Calm 16.09 NULL NULL 0 0 0% 76.3 0.0
07 22:35 Calm 16.09 NULL NULL 0 0 0% 76.28 0.0
07 22:15 Calm 16.09 NULL NULL 0 0 0% 76.3 0.0
07 21:55 Calm 16.09 NULL NULL 0 0 0% 76.3 0.0
07 21:35 Calm 16.09 NULL NULL 0 0 0% 76.28 0.0
07 21:15 Calm 16.09 NULL NULL 0 0 0% 76.25 0.0
07 20:55 Calm 16.09 NULL NULL 0 0 0% 76.25 0.0
07 20:35 Calm 16.09 NULL NULL 0 0 0% 76.23 0.0
07 20:15 Calm 16.09 NULL NULL 0 0 0% 76.23 0.0
07 19:55 Calm 16.09 NULL NULL 0 0 0% 76.2 0.0
07 19:35 N 9 16.09 NULL NULL 0 0 0% 76.2 0.0
07 19:15 Calm 16.09 NULL NULL 0 0 0% 76.2 0.0
07 18:55 Calm 16.09 NULL NULL 0 0 0% 76.2 0.0
07 18:35 N 6 16.09 NULL NULL 0 0 0% 76.2 0.0
07 18:15 NW 7 16.09 NULL NULL 0 0 0% 76.23 0.0
07 17:55 Calm 16.09 NULL NULL 0 0 0% 76.23 0.0
07 17:35 N 9 16.09 NULL NULL 0 0 0% 76.23 0.0
07 17:15 Calm 16.09 NULL NULL 0 0 0% 76.2 0.0
07 16:55 N 9 G 19 16.09 NULL NULL 0 0 0% 76.2 0.0
07 16:35 N 9 16.09 NULL NULL 0 0 0% 76.2 0.0
07 16:15 N 11 16.09 NULL NULL 0 0 0% 76.23 0.0
07 15:15 Vrbl 7 G 19 16.09 NULL NULL 0 0 0% 76.23 0.0
07 14:55 NW 9 G 20 16.09 NULL NULL 0 0 0% 76.25 0.0
07 14:35 NW 7 G 19 16.09 NULL NULL 0 0 0% 76.28 0.0
07 14:15 NW 13 16.09 NULL NULL 0 0 0% 76.3 0.0
07 13:55 Vrbl 11 16.09 NULL NULL 0 0 0% 76.3 0.0
07 13:35 NE 9 G 26 16.09 NULL NULL 0 0 0% 76.3 0.0
07 13:15 N 20 16.09 NULL NULL 0 0 0% 76.33 0.0
07 12:55 NW 15 16.09 NULL NULL 0 0 0% 76.33 0.0
07 12:35 N 15 G 30 16.09 NULL NULL 0 0 0% 76.33 0.0
07 12:15 N 15 G 28 16.09 NULL NULL 0 0 0% 76.35 0.0
07 11:55 N 15 G 26 16.09 NULL NULL 0 0 0% 76.35 0.0
07 11:35 N 17 G 30 16.09 NULL NULL 0 0 0% 76.35 0.0
07 11:15 N 17 16.09 NULL NULL 0 0 0% 76.38 0.0
07 10:55 N 17 G 26 16.09 NULL NULL 0 0 0% 76.4 0.0
07 10:35 N 17 G 28 16.09 NULL NULL 0 0 0% 76.38 0.0
07 10:15 N 13 G 24 16.09 NULL NULL 0 0 0% 76.38 0.0
07 09:55 N 20 16.09 NULL NULL 0 0 0% 76.38 0.0
07 09:35 N 19 G 30 16.09 NULL NULL 0 0 0% 76.4 0.0
07 09:15 N 20 16.09 NULL NULL 0 0 0% 76.4 0.0
07 08:55 N 19 16.09 NULL NULL 0 0 0% 76.38 0.0
07 08:35 N 19 16.09 NULL NULL 0 0 0% 76.38 0.0
07 08:15 N 19 16.09 NULL NULL 0 0 0% 76.35 0.0
07 07:55 N 20 16.09 NULL NULL 0 0 0% 76.33 0.0
07 07:35 N 19 16.09 NULL NULL 0 0 0% 76.33 0.0
07 07:15 N 15 16.09 NULL NULL 0 0 0% 76.33 0.0
07 06:55 N 9 16.09 NULL NULL 0 0 0% 76.28 0.0
07 06:35 N 7 16.09 NULL NULL 0 0 0% 76.25 0.0
07 06:15 NW 9 16.09 NULL NULL 0 0 0% 76.25 0.0
07 05:55 N 11 16.09 NULL NULL 0 0 0% 76.23 0.0
07 05:35 NW 9 G 19 16.09 NULL NULL 0 0 0% 76.23 0.0
07 05:15 N 13 16.09 NULL NULL 0 0 0% 76.2 0.0
07 04:55 N 13 16.09 NULL NULL 0 0 0% 76.2 0.0
07 04:35 N 15 16.09 NULL NULL 0 0 0% 76.17 0.0
07 04:15 N 13 16.09 NULL NULL 0 0 0% 76.17 0.0
07 03:55 N 11 16.09 NULL NULL 0 0 0% 76.2 0.0
07 03:35 N 11 16.09 NULL NULL 0 0 0% 76.17 0.0
07 03:15 N 11 16.09 NULL NULL 0 0 0% 76.2 0.0
07 02:55 N 11 16.09 NULL NULL 0 0 0% 76.2 0.0
07 02:35 N 9 16.09 NULL NULL 0 0 0% 76.2 0.0
07 02:15 N 15 16.09 NULL NULL 0 0 0% 76.17 0.0
07 01:55 N 15 16.09 NULL NULL 0 0 0% 76.2 0.0
07 01:35 N 17 16.09 NULL NULL 0 0 0% 76.2 0.0
07 01:15 N 13 16.09 NULL NULL 0 0 0% 76.2 0.0
07 00:55 N 13 16.09 NULL NULL 0 0 0% 76.23 0.0
07 00:35 N 17 16.09 NULL NULL 0 0 0% 76.2 0.0
07 00:15 N 15 16.09 NULL NULL 0 0 0% 76.17 0.0
06 23:55 N 13 16.09 NULL NULL 0 0 0% 76.17 0.0
06 23:35 N 15 16.09 NULL NULL 0 0 0% 76.17 0.0
06 23:15 N 15 G 26 16.09 NULL NULL 0 0 0% 76.15 0.0
06 22:55 N 13 16.09 NULL NULL 0 0 0% 76.15 0.0
06 22:35 N 13 16.09 NULL NULL 0 0 0% 76.17 0.0
06 22:15 N 17 16.09 NULL NULL 0 0 0% 76.17 0.0
06 21:55 N 22 16.09 NULL NULL 0 0 0% 76.15 0.0
06 21:35 N 19 G 28 16.09 NULL NULL 0 0 0% 76.17 0.0
06 21:15 N 26 16.09 NULL NULL 0 0 0% 76.12 0.0
06 20:55 N 20 G 30 16.09 NULL NULL 0 0 0% 76.1 0.0
06 20:35 N 15 16.09 NULL NULL 0 0 0% 76.07 0.0
06 20:15 N 19 16.09 NULL NULL 0 0 0% 76.1 0.0
06 19:55 N 17 G 28 16.09 NULL NULL 0 0 0% 76.07 0.0
06 19:35 N 20 G 31 16.09 NULL NULL 0 0 0% 76.05 0.0
06 19:15 N 19 16.09 NULL NULL 0 0 0% 76.07 0.0
06 18:55 N 22 16.09 NULL NULL 0 0 0% 76.1 0.0
06 18:35 N 20 16.09 NULL NULL 0 0 0% 76.07 0.0
06 18:15 N 20 16.09 NULL NULL 0 0 0% 76.05 0.0
06 17:55 N 20 16.09 NULL NULL 0 0 0% 76.05 0.0 0.03
06 17:35 N 19 16.09 NULL NULL 0 0 0% 76.02 0.0
06 17:15 N 24 16.09 NULL NULL 0 0 0% 76.02 0.0
06 16:55 N 19 G 28 16.09 NULL NULL 0 0 0% 76.02 0.0
06 16:35 N 22 16.09 NULL NULL 0 0 0% 75.95 0.0
06 16:15 N 22 16.09 NULL NULL 0 0 0% 76 0.0
06 15:55 N 24 16.09 NULL NULL 0 0 0% 76 0.0
06 15:35 N 19 14.48 NULL NULL 0 0 0% 76.1 0.0
06 14:55 NW 20 G 33 14.48 NULL NULL 0 0 0% 76.17 0.0
06 14:35 NW 22 G 33 16.09 NULL NULL 0 0 0% 76.2 0.0
06 14:15 N 22 16.09 NULL NULL 0 0 0% 76.15 0.0
06 13:55 N 22 16.09 NULL NULL 0 0 0% 76.12 0.0
06 13:35 N 26 16.09 NULL NULL 0 0 0% 76.15 0.0
06 13:15 N 22 16.09 NULL NULL 0 0 0% 76.12 0.0
06 12:55 N 19 16.09 NULL NULL 0 0 0% 76.1 0.0
06 12:35 N 15 G 28 14.48 NULL NULL 0 0 0% 76.1 0.0
06 12:15 NW 17 G 30 8.05 Haze NULL 0 0 0% 76.15 0.0
06 11:55 N 22 4.83 Fog/Mist NULL 0 0 0% 76.12 0.0
06 11:35 N 24 14.48 NULL NULL 0 0 0% 76.12 0.0
06 11:15 NW 22 8.05 Haze NULL 0 0 0% 76.12 0.0
06 10:55 N 28 16.09 NULL NULL 0 0 0% 76.07 0.0
06 10:35 N 22 G 31 16.09 NULL NULL 0 0 0% 76.07 0.0
06 10:15 N 22 16.09 NULL NULL 0 0 0% 76.05 0.0
06 09:55 N 22 16.09 NULL NULL 0 0 0% 76.02 0.0 0.08
06 09:35 N 20 12.87 NULL NULL 0 0 0% 76.05 0.0
06 09:15 NW 22 2.41 Fog/Mist NULL 0 0 0% 76.05 0.0
06 08:55 N 22 2.41 Fog/Mist NULL 0 0 0% 76 0.0 0.08
06 08:35 N 22 4.83 Fog/Mist NULL 0 0 0% 75.97 0.0
06 08:15 N 17 12.87 NULL NULL 0 0 0% 75.95 0.0
06 07:55 NW 13 16.09 NULL NULL 0 0 0% 75.95 0.0
06 07:35 N 19 16.09 NULL NULL 0 0 0% 75.92 0.0
06 07:15 N 22 16.09 NULL NULL 0 0 0% 75.87 0.0
06 06:55 N 22 16.09 NULL NULL 0 0 0% 75.87 0.0 0.05
06 06:35 N 15 14.48 NULL NULL 0 0 0% 75.87 0.0
06 06:15 N 20 11.27 NULL NULL 0 0 0% 75.84 0.0
06 05:55 NE 13 16.09 NULL NULL 0 0 0% 75.79 0.0 1.4
06 05:35 NE 20 G 35 0.80 Freezing Fog NULL 0 0 0% 75.77 0.0
06 05:15 N 22 G 33 8.05 Haze NULL 0 0 0% 75.79 0.0
06 04:55 N 26 G 39 11.27 NULL NULL 0 0 0% 75.72 0.0
06 04:35 N 26 G 37 12.87 NULL NULL 0 0 0% 75.74 0.0
06 04:15 N 20 G 35 16.09 NULL NULL 0 0 0% 75.72 0.0
06 03:55 N 28 G 43 16.09 NULL NULL 0 0 0% 75.69 0.0
06 03:35 SW 19 16.09 NULL NULL 0 0 0% 75.59 0.0
06 03:15 S 24 G 35 16.09 NULL NULL 0 0 0% 75.54 0.0
06 02:55 SW 24 G 35 0.00 NULL NULL 0 0 0% 75.57 0.0
06 02:35 S 19 G 31 16.09 NULL NULL 0 0 0% 75.57 0.0
06 02:15 S 20 G 35 16.09 NULL NULL 0 0 0% 75.57 0.0
06 01:55 S 24 16.09 NULL NULL 0 0 0% 75.57 0.0
06 01:15 S 28 G 37 16.09 NULL NULL 0 0 0% 75.57 0.0
06 00:55 S 20 G 33 16.09 NULL NULL 0 0 0% 75.59 0.0
06 00:35 S 20 G 33 16.09 NULL NULL 0 0 0% 75.62 0.0
06 00:15 S 22 G 33 16.09 NULL NULL 0 0 0% 75.62 0.0
05 23:55 S 22 G 33 16.09 NULL NULL 0 0 0% 75.57 0.0
05 23:35 S 19 G 31 16.09 NULL NULL 0 0 0% 75.59 0.0
05 23:15 S 19 16.09 NULL NULL 0 0 0% 75.62 0.0
05 22:55 S 15 16.09 NULL NULL 0 0 0% 75.64 0.0
05 22:35 S 19 16.09 NULL NULL 0 0 0% 75.64 0.0
05 22:15 S 15 16.09 NULL NULL 0 0 0% 75.64 0.0
05 21:35 S 17 16.09 NULL NULL 0 0 0% 75.64 0.0
05 21:15 S 17 16.09 NULL NULL 0 0 0% 75.62 0.0
05 20:55 SE 19 16.09 NULL NULL 0 0 0% 75.59 0.0
05 20:35 S 19 0.00 NULL NULL 0 0 0% 75.59 0.0
05 20:15 SE 15 16.09 NULL NULL 0 0 0% 75.57 0.0
05 19:55 SE 15 G 28 16.09 NULL NULL 0 0 0% 75.54 0.0
05 19:35 SE 20 16.09 NULL NULL 0 0 0% 75.51 0.0
05 19:15 SE 19 16.09 NULL NULL 0 0 0% 75.54 0.0
05 18:55 S 20 16.09 NULL NULL 0 0 0% 75.57 0.0
05 18:35 SE 19 G 30 16.09 NULL NULL 0 0 0% 75.57 0.0
05 18:15 S 24 16.09 NULL NULL 0 0 0% 75.59 0.0
05 17:55 S 22 16.09 NULL NULL 0 0 0% 75.59 0.0
05 17:35 S 20 G 37 16.09 NULL NULL 0 0 0% 75.62 0.0
05 17:15 S 26 G 37 16.09 NULL NULL 0 0 0% 75.62 0.0
05 16:55 S 28 G 39 16.09 NULL NULL 0 0 0% 75.62 0.0
05 16:35 S 28 16.09 NULL NULL 0 0 0% 75.59 0.0
05 16:15 S 28 G 39 16.09 NULL NULL 0 0 0% 75.62 0.0
05 15:55 S 28 G 41 16.09 NULL NULL 0 0 0% 75.64 0.0
05 15:35 S 28 16.09 NULL NULL 0 0 0% 75.64 0.0
05 15:15 S 24 16.09 NULL NULL 0 0 0% 75.64 0.0
05 14:55 S 26 16.09 NULL NULL 0 0 0% 75.67 0.0
05 14:35 SE 28 16.09 NULL NULL 0 0 0% 75.67 0.0
05 14:15 S 28 16.09 NULL NULL 0 0 0% 75.67 0.0
05 13:15 S 24 16.09 NULL NULL 0 0 0% 75.72 0.0
05 12:35 S 30 16.09 NULL NULL 0 0 0% 75.72 0.0
05 12:15 S 26 G 41 16.09 NULL NULL 0 0 0% 75.74 0.0
05 11:55 S 26 G 35 16.09 NULL NULL 0 0 0% 75.77 0.0
05 11:35 S 28 16.09 NULL NULL 0 0 0% 75.77 0.0
05 11:15 S 24 16.09 NULL NULL 0 0 0% 75.77 0.0
05 10:55 S 19 G 33 16.09 NULL NULL 0 0 0% 75.77 0.0
05 10:35 S 24 16.09 NULL NULL 0 0 0% 75.77 0.0
05 10:15 S 20 G 33 9.66 Haze NULL 0 0 0% 75.79 0.0
05 09:55 S 24 G 33 14.48 NULL NULL 0 0 0% 75.79 0.0
05 09:35 SE 22 16.09 NULL NULL 0 0 0% 75.79 0.0
05 09:15 S 22 16.09 NULL NULL 0 0 0% 75.79 0.0
05 08:55 S 13 G 24 16.09 NULL NULL 0 0 0% 75.82 0.0
05 08:35 SE 17 16.09 NULL NULL 0 0 0% 75.82 0.0
05 08:15 SE 15 16.09 NULL NULL 0 0 0% 75.82 0.0
05 07:55 S 15 16.09 NULL NULL 0 0 0% 75.82 0.0
05 07:35 S 15 16.09 NULL NULL 0 0 0% 75.79 0.0
05 07:15 SE 19 16.09 NULL NULL 0 0 0% 75.79 0.0
05 06:55 S 17 16.09 NULL NULL 0 0 0% 75.77 0.0
05 06:35 S 15 16.09 NULL NULL 0 0 0% 75.74 0.0
05 06:15 SE 19 16.09 NULL NULL 0 0 0% 75.72 0.0
05 05:55 SE 19 16.09 NULL NULL 0 0 0% 75.69 0.0
05 05:35 SE 17 G 30 16.09 NULL NULL 0 0 0% 75.67 0.0
05 05:15 SE 19 16.09 NULL NULL 0 0 0% 75.69 0.0
05 04:55 SE 19 16.09 NULL NULL 0 0 0% 75.69 0.0
05 04:35 S 19 16.09 NULL NULL 0 0 0% 75.72 0.0
05 04:15 S 20 16.09 NULL NULL 0 0 0% 75.72 0.0
05 03:55 S 19 16.09 NULL NULL 0 0 0% 75.74 0.0
05 03:35 S 17 16.09 NULL NULL 0 0 0% 75.74 0.0
05 03:15 S 15 16.09 NULL NULL 0 0 0% 75.72 0.0
05 02:55 S 15 16.09 NULL NULL 0 0 0% 75.74 0.0
05 02:35 S 15 16.09 NULL NULL 0 0 0% 75.77 0.0
05 02:15 S 13 16.09 NULL NULL 0 0 0% 75.79 0.0
05 01:55 S 15 16.09 NULL NULL 0 0 0% 75.82 0.0
05 01:35 S 13 G 24 16.09 NULL NULL 0 0 0% 75.82 0.0
05 01:15 S 13 16.09 NULL NULL 0 0 0% 75.82 0.0
05 00:55 S 13 16.09 NULL NULL 0 0 0% 75.84 0.0
05 00:35 S 11 0.00 NULL NULL 0 0 0% 75.84 0.0
Date Time (cdt) Wind (kph) Vis. (km) Weather Sky Cond. Air Dwpt Max. Min. Relative Humidity Wind Chill (°C) Heat Index (°C) altimeter (cm) sea level (mb) 1 hr 3 hr 6 hr
6 hour
Temperature (ºC) Pressure Precipitation (cm)